RH
27 27 27 26 26 26 26 25 25 25 26 26 27 28 28 28 28 28 29 30 31 31 31 30 29 28 27 26 25 24 24 23 23 22 21 21 20 19 18 17 17 16 15 14 13 12 12 11 11 10 10 10 10 11 11 12 13 13 14 13 12 12 11 11 11 10 10 9 9 9 8 9 9 9
24 23 23 22 22 22 21 21 21 20 20 20 21 21 22 22 23 23 24 25 26 26 26 26 25 24 23 22 22 21 20 20 19 19 18 18 17 16 16 15 15 14 13 12 11 10 9 9 8 8 8 8 8 9 9 10 11 12 13 13 12 11 11 11 11 10 10 9 9 9 9 9 8 9
16 16 16 16 16 16 16 15 15 14 14 14 15 15 15 16 16 17 17 19 20 21 22 21 21 20 19 18 18 17 16 15 15 15 14 14 13 13 12 12 11 11 10 9 8 8 7 7 6 6 7 7 7 8 8 9 10 10 11 12 12 11 10 10 10 10 10 10 10 9 9 9 8 8
10 10 10 10 11 11 11 11 10 10 10 9 10 10 10 10 11 11 11 12 14 15 16 16 15 15 14 13 13 13 12 11 11 11 10 10 10 9 9 9 9 9 8 8 7 7 6 6 5 5 6 6 6 6 7 7 8 9 10 11 11 10 10 10 10 10 10 10 10 9 9 9 8 8
8 9 8 8 9 9 9 9 9 8 8 8 8 8 8 8 8 8 8 8 9 10 11 12 11 11 11 10 10 10 9 9 9 9 9 8 8 8 8 8 8 8 8 8 7 7 6 5 5 5 5 5 6 6 6 6 7 8 8 9 10 10 10 10 10 10 9 9 10 10 9 9 9 8
7 7 7 7 7 7 7 7 8 8 7 7 7 7 7 7 7 8 7 7 8 9 9 10 10 10 10 9 9 9 9 9 8 8 8 8 8 8 8 8 8 8 8 8 8 7 6 5 5 5 5 5 6 5 6 6 6 7 8 8 9 10 10 9 9 10 9 9 9 10 9 9 9 8
6 6 6 6 6 6 6 6 6 7 6 6 6 6 6 7 6 7 7 7 7 8 8 9 9 9 9 9 9 9 9 8 8 8 8 8 8 8 8 8 8 8 8 8 8 7 6 6 5 5 5 5 5 6 5 5 6 6 7 7 8 9 10 10 9 9 10 9 8 9 10 9 9 9
5 5 5 5 5 5 5 5 5 6 6 6 6 6 6 6 6 6 6 6 6 7 7 8 8 8 9 9 9 8 8 8 8 8 7 7 7 7 8 7 7 7 7 7 7 7 6 6 5 5 5 5 5 6 6 5 5 5 6 7 7 8 9 10 10 9 9 10 9 8 9 9 9 8
4 4 4 4 4 4 4 4 5 5 5 5 5 5 5 5 5 5 5 6 6 6 6 7 7 7 8 8 8 8 8 7 7 7 7 7 7 7 7 7 7 7 7 7 7 6 6 6 5 5 5 5 5 5 6 5 5 5 5 6 6 8 9 9 10 10 9 10 9 8 8 8 9 9
4 3 4 3 3 4 4 4 4 4 4 4 4 5 5 5 5 5 5 5 5 5 6 6 6 7 7 7 7 7 7 7 6 6 6 6 6 6 6 6 7 6 6 6 6 6 6 5 5 5 5 5 5 5 6 5 5 5 5 5 6 6 8 9 9 9 9 10 10 9 9 8 8 9
4 3 3 3 3 3 4 4 4 4 4 4 4 4 4 4 4 4 5 5 5 5 5 6 6 6 6 6 6 7 6 6 6 6 6 6 6 6 6 6 6 6 6 6 6 6 5 5 5 5 5 5 5 5 6 5 5 5 5 5 5 6 7 8 9 9 9 10 10 10 9 9 8 8
4 4 4 4 4 3 4 4 4 4 4 4 4 4 4 4 4 4 4 4 4 4 5 5 5 6 6 6 6 6 6 6 6 6 5 5 6 6 6 6 6 6 6 6 6 5 5 5 5 5 5 5 5 5 5 5 5 5 5 5 5 5 6 6 8 9 9 10 10 10 10 10 9 8
4 4 4 4 4 4 4 4 4 4 4 4 4 4 4 4 4 4 4 4 4 4 4 4 5 5 5 5 6 6 6 5 5 5 5 5 6 5 6 6 6 6 6 6 6 5 5 5 5 5 5 5 5 5 5 5 5 5 5 5 5 5 5 6 7 8 9 10 10 10 10 11 10 9
3 4 4 4 4 4 4 4 5 5 4 4 4 4 4 4 4 4 4 4 4 4 4 4 4 5 5 5 5 5 5 5 5 5 5 5 5 5 5 5 5 6 6 6 6 5 5 5 5 5 5 5 5 5 5 5 5 5 5 5 5 5 5 5 6 7 8 9 10 11 11 11 11 10
3 3 3 3 3 3 4 4 5 5 5 5 4 4 5 4 4 4 4 4 4 4 4 4 4 4 4 4 5 4 5 5 5 5 5 5 5 5 5 5 5 5 6 5 5 5 5 5 5 5 5 5 5 5 5 5 5 5 5 5 5 5 5 5 5 6 7 8 9 10 11 11 11 11
2 3 3 3 3 3 3 3 4 4 4 5 4 4 5 5 4 5 5 5 5 4 4 4 4 4 4 4 4 4 4 4 5 5 5 5 5 5 5 5 5 5 5 5 5 5 5 5 5 5 5 5 5 5 5 5 5 5 5 5 5 5 5 5 5 5 6 7 8 10 11 12 12 11
3 3 2 3 3 3 3 3 3 4 4 4 4 4 5 5 5 5 5 5 5 5 5 4 4 4 4 4 4 4 4 4 4 5 5 5 5 4 5 5 4 5 5 5 5 5 5 5 5 5 5 5 5 5 4 5 5 4 5 5 5 5 5 6 5 5 5 6 7 9 10 12 12 12
3 3 3 3 3 2 3 3 3 3 4 4 4 4 4 4 4 5 5 5 5 5 5 4 4 4 4 4 4 4 4 4 4 4 4 4 4 4 4 4 4 4 4 4 5 4 5 5 5 5 5 5 5 5 5 5 4 4 4 4 5 5 5 6 5 6 6 5 6 7 9 11 12 12
3 3 3 3 3 3 2 2 3 3 3 3 3 3 4 4 4 4 4 5 5 5 5 4 4 4 4 4 4 4 4 4 4 4 4 4 4 4 4 4 4 4 4 4 4 4 5 5 5 5 5 5 5 4 4 5 4 4 4 4 5 5 5 5 5 5 6 5 6 6 7 9 11 12
3 3 3 3 3 3 2 2 2 2 3 3 3 3 4 4 4 4 4 4 5 5 5 5 4 4 4 4 4 4 5 4 4 4 4 4 4 4 4 4 4 4 4 4 4 4 5 4 4 5 4 4 5 4 4 4 4 4 4 4 5 5 5 5 5 5 6 5 6 6 6 8 10 11
3 3 3 3 3 3 2 2 3 2 2 3 2 3 3 3 3 4 4 4 5 5 5 5 5 5 4 4 5 5 5 5 4 4 4 4 4 4 4 4 4 4 4 4 4 4 4 4 4 4 4 4 4 4 4 4 4 4 4 4 5 5 5 5 5 5 6 6 6 6 6 7 8 10
3 2 3 3 3 3 3 2 2 2 2 2 2 2 3 3 3 3 4 4 5 5 5 5 5 5 5 5 5 5 5 5 4 4 4 4 4 4 4 4 4 4 4 4 4 4 4 4 4 4 4 4 4 4 4 4 4 4 4 4 4 5 5 5 5 5 5 6 6 6 6 6 7 8
3 3 3 3 3 3 3 3 3 3 2 2 2 2 3 3 3 3 3 4 5 5 5 5 5 5 5 5 5 5 5 5 4 4 4 4 4 4 4 4 4 4 4 4 4 4 4 4 4 4 4 4 4 4 4 4 4 4 4 4 4 5 5 5 5 5 5 5 6 6 6 7 6 7
3 3 3 3 3 3 3 3 3 3 3 2 2 2 3 3 3 3 3 4 5 6 6 5 5 5 5 5 5 5 5 5 5 5 5 5 5 5 4 4 4 4 5 4 4 4 4 4 4 4 4 4 4 4 4 3 4 3 3 4 4 4 5 5 5 5 5 5 6 6 6 7 7 7
3 3 3 3 3 3 3 3 3 2 3 3 3 3 3 3 3 3 3 4 5 5 6 5 6 6 6 6 6 5 5 5 5 5 5 5 5 5 4 4 5 5 5 4 4 5 4 4 4 4 4 4 4 4 4 3 4 4 3 4 4 4 4 5 5 5 5 5 6 6 6 7 7 7
3 3 3 3 3 3 3 3 3 3 3 3 3 3 3 3 3 3 4 4 5 5 6 6 6 6 6 6 6 6 5 6 5 5 5 5 5 5 5 5 5 5 5 5 5 5 4 4 4 4 4 4 4 4 4 4 4 4 3 3 4 4 4 5 5 6 6 6 6 6 6 7 7 8
3 3 3 3 2 3 3 3 3 3 4 4 4 4 3 3 3 4 4 5 5 5 5 6 6 6 6 6 6 6 5 6 5 6 6 6 6 5 5 5 5 5 5 5 4 5 5 4 5 5 4 4 4 4 4 4 4 4 4 4 4 4 4 5 5 6 6 6 6 6 6 7 7 8
3 2 3 3 3 3 3 3 4 4 4 4 4 3 4 4 4 4 4 5 5 5 5 6 5 6 6 5 5 5 5 5 6 6 6 6 6 5 5 5 5 5 5 5 5 5 5 5 5 5 4 4 5 4 4 4 4 4 4 4 4 4 5 5 5 6 6 6 6 6 6 7 7 8
2 2 3 3 3 3 3 3 4 4 4 4 4 3 4 4 4 5 5 5 5 5 5 5 5 4 5 4 4 5 5 6 6 6 6 6 5 5 5 5 6 5 5 5 5 6 6 5 5 5 5 4 4 5 5 4 4 4 4 4 4 4 5 5 5 6 6 6 6 6 6 7 7 7
2 2 3 3 3 3 3 4 4 4 4 4 4 4 4 5 5 5 5 5 5 5 5 5 4 4 4 4 4 5 5 6 6 6 6 6 5 6 6 6 6 5 6 6 6 6 6 5 5 5 5 5 5 5 5 4 4 4 4 4 5 5 5 5 5 5 6 6 6 6 6 7 7 8
2 2 3 3 3 3 3 3 4 4 4 4 4 4 4 5 5 5 5 5 5 5 4 4 4 4 5 4 5 5 5 6 6 6 6 6 6 6 6 6 6 6 6 7 6 6 5 5 5 5 4 5 5 5 5 5 5 5 5 5 5 5 5 5 5 6 6 6 6 7 7 7 7 8
3 3 3 3 3 4 4 4 4 4 4 4 4 4 5 5 5 5 5 5 5 4 4 4 4 5 5 5 5 5 5 6 6 6 6 6 6 6 6 6 6 7 7 7 6 5 5 4 4 5 4 5 5 5 5 5 5 5 5 5 5 5 5 6 6 6 6 6 7 7 7 7 8 8
3 3 3 4 4 4 5 5 5 4 4 4 4 5 5 5 5 5 5 5 5 4 4 5 5 5 5 6 5 5 5 6 6 6 7 6 6 6 6 7 7 7 7 7 6 5 5 5 4 5 5 5 5 5 5 5 5 5 5 5 5 6 5 6 6 6 6 7 7 7 7 7 8 8
3 4 4 4 4 5 5 5 5 4 4 5 5 5 5 5 5 5 5 5 4 5 5 5 5 6 5 5 5 5 5 6 6 6 7 6 6 7 7 7 7 7 6 6 5 5 5 5 5 5 5 5 5 5 6 6 6 6 6 5 6 6 6 6 6 6 7 7 7 7 7 7 8 8
4 4 4 4 5 5 5 5 5 5 5 5 5 6 5 5 5 5 5 5 5 5 5 5 5 6 6 5 5 5 5 6 6 7 7 7 7 7 8 7 7 7 6 5 5 5 5 5 5 5 5 5 5 6 6 6 6 6 6 6 6 6 6 6 6 6 7 7 7 7 7 8 8 8
4 4 4 4 5 5 5 5 5 5 5 6 6 6 6 6 6 6 5 5 5 5 5 5 5 6 6 5 5 5 5 6 7 7 7 7 8 8 8 7 6 6 6 5 5 6 6 6 6 5 5 5 6 6 6 6 6 6 6 6 7 7 7 7 7 7 7 7 8 8 8 8 8 9
4 5 5 5 5 5 5 5 5 5 6 6 6 7 7 6 6 6 6 6 6 5 5 6 6 6 6 6 6 6 6 7 8 8 8 8 8 8 8 7 6 6 6 6 6 6 6 6 6 6 6 6 6 7 7 7 6 6 6 7 7 7 8 7 7 7 8 8 8 8 8 8 9 9
5 5 5 5 6 6 6 6 6 6 6 7 7 7 7 6 6 6 6 6 6 6 6 6 7 7 7 6 6 6 7 8 9 9 8 8 9 8 7 6 6 6 6 7 6 6 7 7 7 7 7 7 7 8 7 7 7 7 7 7 8 8 8 8 8 7 8 8 8 8 9 9 9 10
5 5 5 5 6 6 6 6 6 6 7 7 7 7 7 7 7 7 7 7 6 6 7 7 8 8 7 7 7 7 8 9 9 9 9 9 9 8 7 6 6 6 7 7 7 7 7 8 8 8 8 8 8 8 8 7 7 7 7 8 8 9 9 9 8 8 8 9 9 9 9 9 10 11
5 6 6 6 6 6 6 6 7 7 7 7 7 7 7 7 7 7 7 7 7 7 7 8 8 9 8 8 8 8 9 10 10 10 9 9 9 8 7 6 7 7 7 7 7 8 8 8 9 9 9 9 8 8 8 8 8 8 8 8 9 10 11 10 9 9 8 9 10 10 10 10 11 12
6 5 6 6 6 6 6 6 7 7 8 8 8 7 7 7 7 7 7 7 7 7 8 8 8 8 8 8 8 9 10 10 10 10 9 9 8 8 7 7 7 8 8 8 8 8 9 9 10 10 9 8 8 9 9 9 8 9 9 9 9 10 11 11 10 10 9 9 10 11 11 11 12 13
6 6 6 6 6 6 6 7 7 7 7 7 7 7 7 7 7 7 7 7 7 8 8 9 9 8 9 9 9 10 10 11 10 10 9 9 8 7 7 7 8 9 9 9 9 9 10 10 11 11 10 9 9 10 10 10 10 10 10 10 10 11 11 12 11 10 10 10 11 12 12 12 13 14
6 6 6 6 6 7 7 7 7 7 7 7 7 7 7 6 6 7 7 7 8 9 9 9 9 9 9 10 10 10 11 11 10 10 9 8 8 8 8 8 9 10 10 10 9 10 11 12 12 11 10 10 10 11 12 11 11 11 11 11 11 11 11 12 12 11 11 11 11 12 13 13 13 14
7 7 7 7 7 7 7 7 7 7 7 7 7 7 7 7 7 7 7 8 8 9 9 9 9 10 10 10 11 11 11 11 10 9 9 9 9 9 9 9 10 10 11 10 10 10 12 13 13 12 11 11 11 12 13 12 12 12 11 11 11 11 11 12 12 11 11 11 12 12 14 14 14 14
7 7 7 7 7 7 7 7 7 7 7 7 7 7 7 7 7 7 8 8 9 9 10 10 10 10 11 11 11 11 11 11 10 10 9 10 10 10 10 10 10 11 11 11 11 11 12 13 13 12 11 12 13 14 14 13 12 12 12 12 12 11 11 12 13 12 12 12 12 12 14 15 15 15
Wind_Speed
138 137 137 137 136 136 136 136 135 135 135 135 135 135 135 135 134 133 132 132 133 135 137 137 137 136 136 136 136 135 135 135 134 134 133 132 131 129 128 127 127 126 125 124 123 123 122 122 121 121 120 119 119 119 120 122 125 127 129 129 128 128 128 128 130 132 133 133 131 131 131 132 133 134
140 139 139 138 137 137 137 136 136 135 134 134 134 134 135 135 134 133 133 133 133 135 137 137 138 138 137 136 136 135 135 134 133 132 131 130 129 128 127 126 126 125 124 124 123 122 121 120 119 119 119 118 118 118 120 122 124 126 128 130 130 129 129 129 129 130 132 133 133 132 133 134 134 134
139 138 137 136 135 135 135 135 133 132 131 131 131 131 131 132 131 131 130 130 131 133 136 136 136 137 136 135 134 133 132 131 130 129 128 127 126 124 123 123 122 122 122 122 121 120 119 118 117 117 116 117 117 117 119 121 123 125 127 130 131 131 130 130 129 129 131 133 135 134 135 135 135 135
135 134 133 132 132 132 132 132 130 129 128 127 126 126 126 127 127 126 126 124 126 130 133 133 133 133 133 132 131 130 129 127 126 124 123 122 120 118 117 117 117 117 117 118 118 117 116 115 114 114 114 115 115 116 118 120 122 125 126 129 131 132 131 130 130 130 131 133 135 136 136 136 136 135
130 130 128 127 127 127 127 127 126 126 125 123 122 122 122 121 121 121 120 119 120 124 127 128 128 129 128 127 126 125 124 123 121 119 117 116 115 113 113 112 113 113 114 114 115 115 114 113 112 111 111 112 114 115 117 119 121 123 125 127 129 131 132 131 131 131 131 132 134 136 137 136 136 136
124 124 123 122 121 121 121 120 120 120 120 118 117 117 116 116 116 116 116 115 115 117 120 121 122 123 123 122 121 121 119 119 117 114 112 111 111 110 109 109 110 110 111 112 113 113 112 111 110 108 108 109 111 114 116 119 120 121 123 125 127 130 132 132 132 131 131 131 133 135 137 137 137 136
120 119 119 118 118 118 117 115 115 115 115 114 112 112 111 110 110 110 110 109 109 110 113 114 115 116 116 116 116 116 115 114 113 111 109 108 107 106 106 106 107 108 110 110 111 112 111 110 108 106 105 106 108 112 115 118 120 120 121 122 125 128 131 132 132 132 132 132 132 134 136 137 137 137
115 114 113 113 113 114 113 111 111 112 112 111 110 109 108 107 106 106 105 104 104 105 107 108 109 109 111 111 111 111 111 111 110 108 107 105 103 102 102 103 105 106 107 109 110 110 110 108 106 104 103 104 106 109 114 117 119 119 120 121 123 126 128 131 132 132 132 132 132 132 134 136 138 138
109 109 107 106 106 107 107 105 106 107 108 107 107 106 105 104 104 103 102 101 101 101 102 103 104 104 106 107 108 108 108 108 106 105 103 101 99 98 99 100 102 103 105 107 108 109 108 106 104 102 101 102 104 107 111 115 117 118 119 119 121 124 126 128 130 131 132 132 132 132 133 135 137 139
103 104 102 100 99 99 100 99 100 101 102 103 102 101 101 101 101 100 99 99 98 98 99 100 100 100 102 104 105 105 105 105 103 101 100 98 97 96 96 97 99 101 103 105 106 106 105 104 103 101 100 100 102 106 109 112 115 117 117 118 119 121 124 126 128 130 131 132 133 132 132 133 136 138
99 99 98 96 94 93 94 95 95 96 97 97 97 96 96 96 96 96 96 96 95 95 96 96 96 97 99 101 102 103 103 101 99 98 97 96 94 93 93 94 96 98 100 102 104 104 103 102 101 100 99 99 100 103 106 110 112 114 116 116 117 119 121 124 126 128 129 131 133 133 132 133 134 136
95 95 95 95 93 91 91 92 92 93 93 93 92 91 91 91 91 92 92 92 92 92 93 93 93 94 97 99 100 101 100 98 97 96 94 92 91 91 91 92 94 95 97 99 102 102 100 99 99 99 98 97 98 101 104 107 109 112 113 114 115 117 119 122 124 126 128 130 132 133 133 133 133 134
91 93 93 93 93 91 90 89 90 91 90 90 88 87 87 87 87 87 87 87 88 88 89 89 90 91 94 96 98 99 97 96 94 93 90 89 90 90 90 91 92 92 94 97 99 99 97 97 97 97 96 96 96 98 101 104 106 108 110 111 112 114 117 120 122 125 127 129 130 132 133 133 133 133
86 89 90 91 91 90 89 87 88 89 89 88 87 85 85 85 84 84 83 84 84 85 85 86 87 88 90 94 96 95 94 93 91 90 89 89 90 90 90 90 90 90 92 95 97 96 94 95 95 94 94 95 95 96 99 101 103 104 106 108 110 111 114 117 120 123 126 127 128 130 132 133 134 133
82 84 87 88 88 88 88 86 86 87 88 87 85 83 83 83 82 81 81 81 81 82 83 83 84 85 88 91 92 91 90 89 88 87 88 89 90 89 89 89 88 88 91 94 93 92 92 93 92 91 92 93 93 95 96 98 99 100 102 104 107 109 110 113 117 120 123 125 126 128 130 132 133 133
78 80 83 85 85 85 86 84 83 85 86 85 84 81 81 81 80 79 79 79 79 80 81 81 81 83 86 88 87 86 86 85 84 85 87 88 89 88 87 87 86 87 90 91 89 88 89 90 89 89 90 92 92 93 94 95 96 97 98 100 103 105 108 110 113 117 120 123 125 126 128 130 132 133
73 77 79 81 82 83 83 82 81 82 83 83 82 79 79 80 79 78 78 78 78 79 79 79 80 82 83 83 82 81 81 80 81 84 85 86 86 85 85 85 85 85 87 87 86 85 87 88 88 87 89 90 90 91 92 92 93 93 95 97 99 102 105 107 110 113 116 119 122 125 126 128 130 131
70 73 76 78 79 80 80 79 78 79 81 81 79 78 77 78 78 77 77 76 76 77 77 78 79 80 80 79 78 77 77 78 80 82 82 82 82 82 82 82 83 83 82 83 84 84 85 86 87 86 87 88 88 88 89 90 90 91 91 93 95 98 101 104 106 109 112 115 119 122 124 126 128 129
68 71 72 74 76 76 77 76 75 76 78 78 77 76 76 77 77 76 76 75 74 75 75 76 77 77 76 75 74 73 75 77 79 79 79 79 79 79 79 80 80 79 78 80 83 83 82 84 85 84 84 86 86 86 87 87 88 88 89 90 92 95 98 101 103 106 108 111 114 118 122 124 126 127
66 68 68 70 72 73 73 73 72 73 75 76 75 74 75 76 76 75 74 73 71 72 73 75 75 74 73 72 71 72 74 76 77 77 77 77 77 77 77 77 77 76 75 79 82 81 80 81 82 82 82 83 84 84 85 85 85 86 86 87 89 92 95 98 101 103 105 107 110 114 118 121 123 125
64 65 65 66 69 69 69 69 69 70 71 73 73 73 73 75 74 73 72 70 69 70 72 72 72 71 70 69 70 71 73 75 75 75 75 74 74 75 75 75 74 73 74 77 79 79 78 78 79 80 80 81 82 82 83 83 83 83 84 84 86 89 93 96 98 101 103 104 107 110 113 117 120 123
63 63 62 63 65 65 65 66 67 67 69 72 73 72 72 73 73 71 69 67 66 67 69 69 68 67 67 68 69 70 72 73 73 72 72 72 72 72 72 73 72 71 72 76 77 76 75 76 77 78 78 79 80 81 81 81 81 81 82 83 85 87 91 94 97 99 101 102 104 106 109 112 117 120
59 59 59 61 62 62 62 64 65 66 68 71 71 70 70 71 71 69 66 64 64 65 66 66 65 64 65 67 68 69 70 71 70 70 70 70 70 69 70 71 70 69 72 74 73 73 73 73 74 75 76 76 77 78 78 79 79 80 81 82 84 86 89 92 95 97 99 100 101 103 105 108 112 116
55 56 58 60 61 60 60 62 64 65 66 69 69 67 68 69 68 65 62 61 61 62 64 64 62 62 64 66 66 67 68 68 68 68 68 68 67 68 69 69 68 68 70 71 70 70 71 71 72 73 73 74 74 75 76 77 77 78 80 81 83 85 87 90 93 95 97 98 99 100 102 104 108 112
52 54 57 59 59 58 59 61 63 63 64 65 65 64 65 66 63 59 58 58 60 61 62 62 60 60 63 64 65 65 66 66 66 66 66 66 66 67 68 67 66 67 69 69 68 69 69 69 70 70 71 71 72 73 74 75 76 77 78 80 82 84 86 88 91 93 94 95 97 98 100 102 104 108
51 53 56 57 57 55 56 58 60 60 60 60 60 60 61 60 57 56 56 57 58 60 61 60 60 60 62 64 64 65 65 65 64 64 64 64 64 65 66 65 64 66 67 67 67 67 67 67 67 68 68 69 69 70 71 73 74 76 77 79 80 82 85 87 89 90 92 93 95 96 97 99 102 105
50 52 54 55 54 52 53 55 57 56 56 56 57 58 57 55 54 54 54 56 58 60 60 60 60 61 63 65 64 64 63 62 61 61 62 63 63 64 64 63 63 65 66 66 66 65 65 65 65 65 66 67 67 68 70 72 73 74 76 78 79 81 83 85 87 88 90 91 92 93 95 97 100 102
49 50 51 52 51 50 51 52 52 52 52 54 56 55 52 51 52 52 53 56 59 59 59 61 62 64 65 64 63 61 60 59 59 60 62 62 63 63 62 61 62 64 64 63 63 63 63 63 63 64 64 65 66 67 69 70 72 73 75 77 78 79 80 83 85 87 88 89 90 91 93 95 97 99
46 48 48 49 49 49 49 47 47 48 50 53 55 52 48 48 50 52 54 57 59 60 61 63 64 64 63 61 59 58 57 58 59 61 62 62 61 61 60 60 61 62 61 61 61 61 61 62 62 63 63 64 65 66 68 69 70 72 73 75 76 77 79 81 83 85 86 88 88 89 91 93 95 96
44 45 45 46 46 47 45 44 46 49 51 53 54 51 47 48 52 54 55 58 60 61 63 64 63 61 59 57 56 56 57 59 61 62 61 61 60 59 58 59 60 60 59 59 61 61 61 62 62 62 62 63 64 65 66 68 69 71 72 73 74 76 78 80 82 84 85 86 86 88 90 91 93 95
42 42 42 42 42 42 43 44 47 50 51 53 53 49 48 50 53 55 57 59 61 62 62 60 58 56 55 55 55 57 59 60 61 61 60 59 59 58 57 58 59 57 57 59 60 60 60 61 61 61 62 62 63 65 66 67 68 69 70 72 73 75 76 79 81 83 83 84 85 86 88 90 91 93
38 38 37 36 36 37 40 43 46 49 51 51 50 48 48 51 54 55 56 58 59 59 57 55 54 54 54 55 57 58 60 60 60 59 59 59 58 57 56 57 57 56 56 57 58 58 59 60 60 61 61 62 63 64 65 66 67 68 70 71 72 73 75 78 80 81 81 82 83 85 87 88 90 92
33 33 33 33 33 34 37 41 45 47 48 48 47 47 48 51 52 53 55 56 56 55 54 53 53 54 55 56 58 59 59 59 59 58 58 58 56 55 54 55 55 54 55 56 57 57 58 59 60 61 61 62 63 64 64 65 66 68 69 70 71 72 74 77 78 79 80 80 82 83 85 86 88 90
30 30 32 33 34 36 38 41 43 44 44 43 44 46 48 50 51 53 54 55 54 53 52 52 53 54 56 57 58 58 58 58 58 57 57 56 54 53 53 54 53 53 54 55 56 57 58 58 59 61 61 62 62 63 64 65 66 67 68 69 70 71 73 75 77 77 78 79 81 82 83 85 87 89
28 30 32 34 36 38 39 41 41 41 41 41 43 45 47 49 50 51 53 53 52 51 51 52 53 54 56 57 57 57 58 57 57 56 55 54 53 52 53 53 52 52 54 55 56 56 57 58 59 60 61 62 62 63 64 65 66 67 67 68 69 70 72 74 75 75 76 78 80 81 81 83 85 87
27 29 31 33 34 35 37 38 39 40 41 41 43 45 46 47 48 49 50 50 49 50 50 51 52 54 55 56 56 56 56 55 55 54 54 53 52 52 52 52 51 52 53 54 55 56 56 58 59 60 60 61 62 63 64 65 65 66 66 67 68 69 71 73 73 73 74 76 78 79 80 81 83 85
27 28 29 30 31 33 34 36 37 39 40 41 43 44 45 46 46 47 47 47 48 48 48 49 51 52 53 54 54 54 54 53 53 53 52 51 51 51 51 51 51 51 52 53 54 55 55 56 57 58 60 61 62 63 64 65 65 65 65 66 67 68 70 71 72 72 73 75 76 78 79 80 82 84
25 27 29 30 31 32 34 35 37 38 39 41 43 44 45 45 45 45 46 46 47 47 47 48 49 50 51 52 52 52 52 52 52 52 51 50 49 50 51 51 50 51 52 53 54 54 54 55 57 58 59 61 62 63 64 64 64 64 65 65 66 67 68 69 70 70 71 73 75 77 78 79 81 83
25 27 29 31 32 33 34 35 36 38 39 41 43 44 44 44 44 45 45 46 46 46 46 47 48 49 50 50 50 50 50 50 51 50 50 49 49 50 50 50 50 51 52 53 53 53 54 55 56 57 59 61 62 63 63 63 63 63 64 65 65 65 67 68 69 69 69 71 73 75 77 78 80 82
26 28 29 31 32 34 34 35 36 37 39 41 43 43 43 43 43 44 44 45 45 45 46 47 48 49 50 50 50 50 50 50 50 50 49 49 49 50 50 50 50 51 52 53 53 53 53 54 55 57 59 61 62 62 62 62 62 62 63 64 64 64 65 66 67 67 68 70 72 74 76 77 79 81
27 29 30 31 32 33 34 35 36 37 39 41 42 42 42 42 42 43 43 44 44 45 46 47 48 49 49 49 49 49 49 49 50 49 49 49 49 50 50 49 49 51 51 51 51 52 53 54 55 57 60 61 60 60 61 61 61 61 62 63 63 64 64 65 66 66 67 68 70 73 75 77 78 80
27 28 29 30 31 32 33 34 35 37 39 40 40 40 40 41 41 42 42 43 43 44 46 47 47 48 47 47 48 48 49 49 50 49 49 48 49 49 49 49 49 50 50 50 51 51 52 53 55 57 59 59 58 59 59 60 60 61 61 62 63 63 63 64 65 65 66 67 69 71 74 76 77 78
26 27 28 29 30 31 32 33 34 35 37 38 38 38 38 38 39 40 41 41 42 43 44 45 46 46 46 47 48 48 49 49 49 49 48 48 48 49 49 48 49 50 50 50 50 51 51 52 54 56 57 58 57 58 58 59 60 60 60 61 62 62 63 64 64 65 66 67 69 71 73 75 76 77
25 25 26 28 29 30 31 32 33 34 35 35 35 36 36 36 37 38 39 40 41 42 43 43 44 44 45 47 47 48 49 49 48 48 47 47 48 49 49 48 49 49 49 50 50 50 50 52 54 55 56 56 56 57 58 59 59 59 59 60 61 61 62 63 63 65 65 67 68 70 72 73 75 76
24 25 26 27 28 29 30 31 32 33 34 34 34 34 34 34 35 36 37 38 39 40 41 42 43 44 45 46 47 47 48 48 48 48 47 47 48 49 49 48 48 49 49 49 49 49 50 51 53 54 54 54 55 56 58 59 59 59 59 59 60 60 61 61 63 64 65 66 68 69 70 72 74 75
Wind_Direction
265 265 264 264 263 263 263 262 262 261 261 260 260 260 260 260 260 259 259 259 260 260 261 261 261 260 260 260 259 259 259 259 259 259 259 259 259 258 258 258 258 258 257 256 255 254 253 252 251 249 248 247 245 243 241 239 238 237 236 236 235 234 233 233 232 231 231 230 230 229 228 226 225 224
267 266 266 265 265 264 264 263 263 262 261 261 261 260 260 260 260 259 259 259 260 260 260 261 261 260 260 260 259 259 259 259 259 259 258 258 258 258 258 258 258 258 257 256 255 253 252 251 250 249 247 246 244 243 241 239 238 236 236 236 235 234 233 233 232 231 231 230 230 229 228 227 226 224
268 267 267 267 266 266 265 265 264 264 263 262 262 261 261 261 260 260 259 259 260 260 260 260 260 260 260 260 260 259 259 259 259 259 258 258 258 258 258 258 257 257 256 255 254 253 251 250 248 247 247 245 244 242 241 239 238 236 235 235 235 235 234 233 232 231 230 230 229 229 228 228 227 225
269 268 268 267 267 267 266 266 266 265 264 264 263 262 262 261 261 260 260 259 259 260 260 260 260 260 260 260 260 260 259 259 258 258 258 258 257 257 257 256 256 255 255 254 253 252 250 249 247 246 245 244 243 242 240 239 237 236 235 234 235 235 234 233 232 231 231 230 229 229 228 228 227 226
268 268 267 267 266 266 266 265 265 265 264 263 263 262 262 261 261 260 260 259 258 258 259 259 259 259 259 259 259 259 259 258 258 257 257 257 256 256 255 255 254 254 253 253 252 251 250 248 247 245 243 243 242 241 240 238 237 236 235 234 234 234 234 233 232 231 231 230 229 229 229 228 228 227
267 266 266 266 265 265 264 264 264 263 263 262 262 261 260 260 259 259 258 258 257 256 257 257 257 257 257 258 258 258 257 257 257 256 255 255 254 254 253 253 253 252 252 251 251 251 250 248 247 245 243 241 241 240 239 238 237 236 235 234 233 233 234 233 232 231 231 230 230 229 229 228 228 228
266 266 265 265 265 264 263 263 263 262 262 262 261 260 259 259 258 258 257 256 255 255 255 255 255 255 256 256 256 256 256 255 255 255 254 253 252 252 251 251 251 250 250 250 250 250 249 248 247 245 242 240 239 239 238 237 237 235 234 233 233 233 233 233 232 232 231 230 230 229 229 228 228 228
265 264 264 263 263 263 263 262 262 262 261 261 260 260 259 258 258 257 256 256 255 254 254 254 254 254 254 254 254 254 254 254 254 253 253 252 251 250 250 249 249 249 249 249 249 249 248 248 247 245 242 240 239 238 238 237 236 235 234 233 232 232 232 232 232 231 231 230 230 230 229 228 228 228
264 263 263 262 261 262 261 261 260 260 260 259 259 259 258 258 257 257 256 255 254 254 253 253 252 252 253 253 253 253 252 252 252 252 252 251 250 249 248 248 248 247 247 247 248 248 248 248 247 245 243 240 239 238 237 237 237 236 234 233 232 231 231 231 232 231 231 230 230 230 229 229 228 228
264 264 263 262 261 261 261 260 259 259 258 258 258 257 257 257 256 256 255 254 253 253 252 252 251 251 251 251 251 251 251 251 251 251 251 250 249 248 247 246 246 246 246 247 247 247 247 247 247 245 243 241 239 238 237 237 236 236 235 233 232 231 231 231 231 231 230 230 230 229 229 229 228 228
264 264 264 263 262 261 260 260 259 258 258 257 256 256 256 255 255 254 254 253 252 252 251 250 250 249 249 250 250 250 250 250 250 250 250 250 249 248 247 246 245 245 245 246 246 246 246 246 246 245 243 241 239 238 237 236 236 236 235 234 232 231 231 230 230 230 230 229 229 229 229 229 229 228
264 264 264 264 263 261 260 259 259 258 258 257 256 256 255 255 254 253 253 252 251 251 250 249 248 248 248 248 248 249 249 249 249 249 249 249 249 248 246 245 244 244 244 245 245 246 246 246 245 245 243 241 239 238 237 236 236 236 235 235 233 232 231 230 229 229 230 229 229 229 228 228 228 228
262 262 262 262 261 261 259 259 258 258 258 257 256 256 255 254 254 253 253 252 251 250 249 248 247 246 246 246 247 247 248 248 248 249 249 249 248 247 246 244 243 243 243 243 244 245 245 245 245 244 243 242 240 238 237 236 236 236 235 235 234 232 231 230 229 229 229 229 228 228 228 228 228 228
260 260 260 259 259 259 258 257 257 257 257 256 256 255 255 254 253 253 252 252 251 250 249 248 247 246 245 245 245 246 246 247 247 248 248 247 247 246 245 244 243 242 242 242 243 244 244 244 244 244 243 242 240 239 237 236 236 235 235 234 234 233 231 230 229 229 228 229 228 228 228 228 228 228
259 258 258 257 257 257 256 255 255 255 255 255 255 254 254 254 253 253 252 251 251 250 249 248 246 245 245 245 245 245 245 246 246 246 246 246 246 245 244 244 243 242 242 242 243 243 244 244 244 243 243 242 240 239 238 237 236 235 235 234 234 233 232 231 230 229 228 228 228 228 227 227 228 227
258 257 256 256 255 255 254 253 252 253 253 253 253 253 253 253 252 252 251 251 250 250 249 248 246 245 245 244 244 244 244 244 245 245 245 245 245 244 244 243 243 242 242 243 243 243 243 243 243 242 242 241 240 239 238 237 237 235 234 234 233 233 232 231 230 229 228 228 228 227 227 227 227 227
257 256 255 254 254 253 253 252 251 251 252 252 252 251 251 251 251 251 250 250 249 249 248 247 246 245 245 245 244 244 244 244 244 244 243 243 243 244 244 243 242 242 242 243 243 242 242 242 242 241 241 240 240 239 238 237 237 235 234 233 233 232 232 231 230 229 228 228 227 227 227 227 227 227
256 255 254 253 253 252 252 251 250 250 250 250 250 250 250 250 250 249 249 248 248 248 247 247 246 245 245 245 244 244 244 243 243 242 243 243 243 243 243 242 242 241 241 242 242 241 240 241 241 240 239 239 239 238 238 237 236 235 234 233 232 231 231 231 230 230 229 228 227 227 226 226 226 227
255 253 252 252 251 251 251 250 249 249 249 249 249 248 248 248 248 247 247 247 247 247 247 246 246 245 245 245 244 244 243 243 242 242 242 242 242 242 242 241 241 241 240 241 241 240 239 240 240 239 239 239 238 238 237 236 236 235 233 232 231 231 230 230 230 229 229 228 227 226 226 226 226 226
253 252 252 251 251 250 250 249 248 247 247 248 247 246 246 246 246 246 246 246 246 246 246 245 245 245 244 244 243 242 242 242 241 241 241 241 241 241 241 241 240 239 239 239 240 239 238 239 239 238 238 238 238 237 237 236 235 234 233 231 230 230 230 229 229 229 228 228 227 226 226 226 225 226
253 251 250 250 250 249 249 248 247 246 246 246 245 244 244 244 245 244 244 244 244 244 245 244 244 244 243 243 242 241 240 240 240 240 240 240 240 240 240 240 239 238 238 238 239 239 238 237 238 238 237 237 237 237 236 235 234 233 232 230 229 229 229 229 228 228 228 227 227 226 225 225 225 225
252 251 250 249 249 248 247 247 246 244 244 244 243 242 242 243 243 242 242 242 242 243 244 243 243 242 242 241 240 239 239 239 239 239 239 239 239 239 239 239 238 237 237 237 238 238 237 237 237 237 236 236 236 236 235 235 233 232 231 229 228 227 227 227 227 227 227 227 226 225 225 224 224 224
252 251 249 248 247 246 245 245 244 243 242 242 242 241 241 241 241 241 240 241 241 242 243 242 241 241 240 239 238 238 238 238 238 238 238 238 238 238 238 238 237 236 236 237 237 237 236 236 236 236 236 235 235 235 234 234 233 231 230 228 227 226 226 226 226 227 226 226 226 225 224 224 223 223
251 249 247 246 245 244 243 243 243 242 241 242 242 241 240 240 240 240 239 240 240 241 241 241 240 239 238 238 237 237 237 237 237 237 237 237 236 236 236 236 236 235 236 236 236 236 236 235 235 235 235 235 234 234 233 232 231 230 229 227 226 225 224 224 225 225 226 225 225 224 224 223 223 223
249 247 246 245 244 242 241 241 242 241 240 241 241 241 240 240 240 239 238 238 238 239 239 239 238 236 236 236 235 235 235 234 234 235 235 235 235 235 235 235 234 234 235 235 235 235 235 234 234 234 234 234 233 232 232 231 229 228 227 226 225 224 223 223 224 224 224 224 224 224 223 223 223 223
247 246 245 245 244 242 241 241 242 241 240 240 241 240 240 240 239 238 236 236 236 237 237 236 235 234 234 234 233 233 233 233 233 233 234 234 234 234 234 233 233 233 234 234 234 233 233 233 233 233 233 232 231 230 230 229 228 226 225 225 224 223 222 222 222 223 223 223 223 223 223 223 223 222
246 245 244 244 243 241 240 240 241 240 238 238 239 238 238 238 237 235 234 234 234 235 235 234 233 232 232 232 232 232 232 232 233 233 233 233 233 233 233 232 231 232 232 233 233 233 232 232 232 231 231 230 229 228 228 227 226 225 224 223 222 222 221 221 221 222 222 222 222 222 222 222 222 222
247 246 245 244 242 239 238 238 238 238 237 237 237 236 235 234 234 232 231 231 232 232 232 232 231 231 231 231 231 231 231 232 232 232 232 232 232 232 231 230 230 231 231 232 232 232 231 231 230 230 229 228 227 226 226 225 224 223 222 222 221 221 220 220 221 221 221 221 221 221 221 221 222 222
247 246 245 244 242 239 236 236 236 236 235 235 235 234 231 230 231 229 227 228 229 229 229 230 230 230 231 231 231 231 231 230 230 231 231 231 231 231 230 229 230 230 230 230 230 230 230 230 229 228 227 226 225 225 224 224 223 222 221 221 220 220 219 220 220 220 220 220 220 220 220 220 221 221
247 246 245 244 242 239 236 233 233 233 232 232 232 230 225 225 226 225 225 226 227 227 228 229 229 230 230 230 230 229 228 228 229 229 230 230 230 230 229 229 229 229 228 228 228 228 228 228 228 227 226 225 224 223 223 222 222 221 221 220 219 218 218 219 219 219 219 218 218 218 219 219 219 220
248 247 245 244 243 241 238 233 231 231 231 231 231 228 223 222 224 224 223 225 226 227 228 229 229 229 229 228 227 226 226 226 227 228 229 229 229 228 227 227 228 227 226 227 227 227 228 228 227 227 225 224 223 222 222 221 221 221 220 219 218 217 217 218 218 219 218 218 217 217 218 218 218 219
249 248 246 244 242 241 240 236 233 232 232 232 230 226 222 222 223 223 224 225 227 228 228 228 227 226 226 225 224 224 224 225 226 227 227 228 228 227 226 226 226 225 225 226 227 227 228 228 227 226 225 223 222 221 221 220 220 220 220 219 218 217 216 217 218 218 218 217 217 217 217 217 217 217
247 245 243 240 235 233 235 235 234 234 234 233 230 225 222 222 222 223 224 225 227 227 227 226 225 224 223 223 223 223 223 224 225 226 226 227 226 225 224 225 224 224 225 226 226 227 227 227 226 225 224 222 221 220 220 219 219 219 219 218 217 216 216 217 217 217 217 217 217 217 216 216 216 216
241 238 235 232 228 225 226 229 231 232 233 232 229 225 223 222 222 222 223 225 225 225 225 224 224 223 223 222 222 222 222 223 224 224 225 225 225 224 223 224 223 223 224 225 226 225 225 225 224 224 223 221 220 219 219 219 219 219 218 217 217 216 216 217 216 216 216 216 216 217 216 216 215 216
234 232 230 227 225 224 225 226 228 229 229 228 226 225 224 223 222 222 224 225 225 224 224 223 223 223 223 222 222 222 222 223 223 224 224 224 223 222 223 223 223 223 224 225 224 224 223 223 223 222 221 220 219 218 218 218 218 218 218 217 216 216 216 217 216 215 215 215 216 216 216 215 215 215
229 228 228 226 225 225 227 227 227 227 227 226 225 225 224 224 223 224 224 225 225 225 224 224 223 223 223 223 222 222 222 222 223 223 223 223 222 221 222 223 223 223 224 224 224 222 222 222 222 221 220 219 218 217 217 217 217 217 217 217 216 216 216 216 216 214 214 215 215 215 215 215 215 215
226 223 222 223 224 224 225 226 226 226 225 225 225 225 225 224 224 224 224 225 225 225 225 225 225 224 224 224 223 222 222 222 222 223 223 222 221 221 222 223 222 222 223 223 223 222 221 221 220 220 219 219 218 217 217 217 216 216 216 216 216 216 216 217 216 214 213 214 215 215 214 214 214 215
225 223 219 217 219 221 223 223 223 223 224 224 224 224 224 224 224 224 223 224 224 224 224 224 224 224 224 224 223 222 222 222 222 223 223 222 221 222 223 223 222 222 221 221 221 220 219 219 219 218 218 217 217 216 216 216 216 216 216 216 216 216 217 217 216 214 213 213 214 214 214 214 214 214
220 222 220 217 216 217 220 222 223 223 223 223 224 224 224 224 223 223 223 223 223 223 222 222 222 223 223 222 222 221 221 222 222 223 223 222 222 222 223 223 222 221 220 219 219 218 217 217 217 217 216 216 216 216 216 216 215 215 215 215 215 216 217 217 217 214 212 212 213 214 214 214 213 213
218 219 220 220 218 217 217 219 221 223 223 224 224 224 224 224 223 223 223 223 222 222 221 221 221 221 221 221 220 220 221 221 222 222 222 222 222 223 223 222 221 220 219 218 217 216 215 216 215 215 215 215 215 215 216 216 215 215 215 215 215 215 216 217 217 216 213 212 213 213 214 214 213 213
222 220 220 220 221 220 219 219 219 220 222 224 224 224 224 223 223 222 222 222 222 221 220 220 220 220 219 219 219 220 220 221 221 222 222 222 222 223 223 221 219 219 218 216 215 215 214 214 214 214 215 215 214 215 216 216 215 215 215 215 214 214 215 216 217 216 214 213 212 213 214 214 214 214
225 225 223 222 222 222 222 222 222 221 222 223 224 224 223 223 223 223 222 221 221 220 220 220 220 219 219 218 219 219 220 221 221 222 222 222 222 223 222 220 218 217 217 215 214 214 213 213 213 213 214 214 213 214 215 216 216 215 215 215 215 214 214 215 216 216 215 214 213 213 214 215 215 215
227 227 226 226 224 223 223 224 225 225 225 225 225 224 224 223 223 223 222 221 220 220 219 219 219 219 218 218 218 219 220 221 221 222 222 221 222 222 221 218 216 216 215 215 214 213 212 212 212 213 213 212 212 213 214 216 216 215 215 215 215 214 214 214 215 216 215 215 214 214 215 216 216 215
228 227 227 227 226 226 225 224 224 225 226 227 227 226 224 223 223 223 223 222 221 219 219 219 218 218 217 218 218 219 220 220 221 221 221 220 221 221 219 216 214 214 214 214 213 212 211 211 212 212 212 211 211 212 214 215 216 215 215 216 216 215 214 214 215 215 215 215 215 214 215 216 216 217
228 227 227 227 227 227 227 227 226 226 226 226 226 226 225 223 223 223 222 222 221 220 219 218 217 216 217 217 218 218 219 220 220 220 219 219 219 219 217 215 213 212 213 213 213 212 211 211 211 211 210 210 210 212 213 214 215 215 216 216 216 216 215 214 215 215 216 216 215 215 215 216 217 217